Location: T�bingen+AIT
(48.5342°N, 9.0700°E)
Time: 15:09:39
(UTC+01:00)

Cosmos 1603 - Pass Details

Date: 14 September 2017
Orbit: 830 x 860 km, 71.0° (Epoch: 17 November)

Event Time Altitude Azimuth Distance (km) Brightness Sun altitude
Rises 20:26:32 0° 195° (SSW) 3,367 6.8 -8.7°
Reaches altitude 10° 20:28:59 10° 192° (SSW) 2,435 6.1 -9.1°
Maximum altitude 20:34:29 62° 112° (ESE) 933 3.7 -9.9°
Drops below altitude 10° 20:40:00 10° 33° (NNE) 2,446 6.0 -10.8°
Sets 20:42:27 0° 31° (NNE) 3,385 6.7 -11.2°
